LKKB Weather Reports


Display with metric or nautical units.
time (UTC)temp
F
wind
direction
speed
MPH
gust
MPH
rain 1hr
in
rain 24hr
in
rain mn
in
humidity
%
barometer
mb
20260901030103 59 230 10.0 0.0 0.00 0.00 0.00 82 1018.0
20260901023103 61 220 9.0 0.0 0.00 0.00 0.00 77 1018.0
20260901022052 63 230 12.0 0.0 0.00 0.00 0.00 67
20260901013102 63 230 13.0 0.0 0.00 0.00 0.00 67 1018.0
20260901012055 64 230 14.0 0.0 0.00 0.00 0.00 63
20260901003103 63 220 10.0 0.0 0.00 0.00 0.00 67 1018.0
20260901001851 64 240 14.0 0.0 0.00 0.00 0.00 59
20260831233107 63 230 10.0 0.0 0.00 0.00 0.00 67 1018.0
20260831232024 64 230 12.0 0.0 0.00 0.00 0.00 59
20260831230104 63 230 12.0 0.0 0.00 0.00 0.00 67 1017.0
20260831223102 64 230 12.0 0.0 0.00 0.00 0.00 63 1017.0
20260831222154 66 230 12.0 0.0 0.00 0.00 0.00 59
20260831213103 61 220 9.0 0.0 0.00 0.00 0.00 77 1017.0
20260831211851 64 220 9.0 0.0 0.00 0.00 0.00 63
20260831210103 63 220 9.0 0.0 0.00 0.00 0.00 72 1016.0
20260831203103 63 230 9.0 0.0 0.00 0.00 0.00 72 1016.0
20260831202051 66 220 9.0 0.0 0.00 0.00 0.00 59
20260831200103 64 210 9.0 0.0 0.00 0.00 0.00 67 1016.0
20260831193103 64 210 9.0 0.0 0.00 0.00 0.00 67 1016.0
20260831192055 70 230 9.0 0.0 0.00 0.00 0.00 49
20260831183103 70 250 9.0 0.0 0.00 0.00 0.00 52 1015.0
20260831181852 72 250 9.0 0.0 0.00 0.00 0.00 46
20260831180104 70 250 9.0 0.0 0.00 0.00 0.00 52 1015.0
20260831173102 72 240 13.0 0.0 0.00 0.00 0.00 49 1015.0
20260831172052 73 240 16.0 0.0 0.00 0.00 0.00 43
20260831163102 75 230 16.0 0.0 0.00 0.00 0.00 44 1014.0
20260831162153 75 240 14.0 0.0 0.00 0.00 0.00 44
20260831160103 75 240 16.0 0.0 0.00 0.00 0.00 47 1014.0
20260831153103 75 240 14.0 0.0 0.00 0.00 0.00 47 1015.0
20260831151854 75 250 16.0 0.0 0.00 0.00 0.00 44
20260831151503 73 240 14.0 26.0 0.00 0.00 0.00 46 1015.0
20260831150211 75 240 17.0 0.0 0.00 0.00 0.00 47 1015.0
20260831143102 75 280 13.0 0.0 0.00 0.00 0.00 47 1015.0
20260831141951 73 270 12.0 0.0 0.00 0.00 0.00 46
20260831140104 73 270 10.0 0.0 0.00 0.00 0.00 49 1015.0
20260831133103 75 260 12.0 0.0 0.00 0.00 0.00 50 1015.0
20260831131951 75 260 16.0 0.0 0.00 0.00 0.00 50
20260831123102 72 250 16.0 0.0 0.00 0.00 0.00 56 1015.0
20260831121854 72 240 14.0 0.0 0.00 0.00 0.00 60
20260831120103 70 240 14.0 0.0 0.00 0.00 0.00 64 1015.0
20260831113103 72 240 16.0 0.0 0.00 0.00 0.00 64 1015.0
20260831111950 70 240 18.0 0.0 0.00 0.00 0.00 68
20260831104703 70 230 16.0 0.0 0.00 0.00 0.00 77 1015.0
20260831103103 68 210 9.0 0.0 0.00 0.00 0.00 82 1015.0
20260831102153 66 200 9.0 0.0 0.00 0.00 0.00 82
20260831100103 66 200 12.0 0.0 0.00 0.00 0.00 88 1015.0
20260831094403 66 200 12.0 0.0 0.00 0.00 0.00 88 1015.0
20260831093103 66 190 10.0 0.0 0.00 0.00 0.00 88 1015.0
20260831091852 64 180 7.0 0.0 0.00 0.00 0.00 88
20260831083103 63 220 5.0 0.0 0.00 0.00 0.00 93 1015.0
20260831082024 63 140 2.0 0.0 0.00 0.00 0.00 93
20260831080209 61 100 3.0 0.0 0.00 0.00 0.00 100 1014.0
20260831073903 61 100 5.0 0.0 0.00 0.00 0.00 100 1015.0
20260831073102 61 0 1.0 0.0 0.00 0.00 0.00 100 1015.0
20260831072104 61 0 1.0 0.0 0.00 0.00 0.00 100 1015.0
20260831072040 61 260 7.0 0.0 0.00 0.00 0.00 93
20260831071002 61 240 6.0 0.0 0.00 0.00 0.00 100 1015.0
20260831065031 61 280 12.0 0.0 0.00 0.00 0.00 100 1015.0
20260831063703 64 250 22.0 35.0 0.00 0.00 0.00 82 1015.0
20260831063102 66 250 16.0 0.0 0.00 0.00 0.00 82 1015.0
20260831061955 64 60 2.0 0.0 0.00 0.00 0.00 82
20260831061702 66 0 2.0 0.0 0.00 0.00 0.00 77 1013.0
20260831053103 64 0 0.0 0.0 0.00 0.00 0.00 82 1013.0
20260831052108 63 200 2.0 0.0 0.00 0.00 0.00 82
20260831050103 63 200 2.0 0.0 0.00 0.00 0.00 82 1013.0
20260831043102 63 190 5.0 0.0 0.00 0.00 0.00 82 1014.0
20260831042154 63 190 5.0 0.0 0.00 0.00 0.00 82
20260831040103 63 180 5.0 0.0 0.00 0.00 0.00 82 1014.0
20260831033103 63 200 3.0 0.0 0.00 0.00 0.00 82 1014.0
20260831031852 63 190 5.0 0.0 0.00 0.00 0.00 82